COSMOS 2550

Last updated on Mon Jun 22 2026 00:02:14 GMT+0000 (Coordinated Universal Time)

1 48865U 21056A 26172.52340450 .00002786 00000+0 90492-4 0 9996 2 48865 67.1433 86.7893 0008371 268.8724 91.1471 15.33824588279383
UTC large
Height (km)
Speed (km/s)
/
Latitude / Longitude
Inclination (degrees)
Orbital Period (minutes)
Azimuth
Elevation
Range (km)
Doppler Factor

Next 0 passes for location: London (51.5072 / 0.1276)

No passes found over London.
COSMOS 2550